Find Starlink 31010

NORAD ID: 58519 Int'l Des: 2023-191 Owner: SPXS Country: US Constellation: starlink operational
LEOCIRCULAR

Live Position

Loading 3D Globe...

About Starlink 31010

Description loading...

Upcoming Passes

Passes for default location (London). Set your location on the main map for personalized predictions.

Altitude History

Loading altitude history...

Two-Line Element Set

1 58519U 23191M 26121.81101713 .00000148 00000-0 14892-4 0 9999
2 58519 43.0035 163.5376 0001128 285.0830 74.9897 15.27578736133590
Epoch: May 1, 2026 • Age: 11 hours

Current Status

Altitude 483.3 km
Velocity 7.63 km/s
Sub-Earth Point -5.03°S, 160.88°W
Launch Date Dec 7, 2023
Age 2.4 years
Type internet

Technical Details

Classification Payload
Mass 730.00 kg
Dry Mass 700.00 kg
Total Mass 730.00 kg
Length 0.30 m
Diameter 4.10 m
Span 29.00 m
Shape Box + pan
Manufacturer SPXS
Bus Type Starlink V2M
Phase Status In Orbit
Owner/State SPXS/US

Most Searched